Location: Newark
(13.2833°S, 176.1833°W)
Time: 22:40:55
(UTC+00:00)

Hubble Space Telescope - Pass Details

Date: 22 November 2019
Orbit: 536 x 540 km, 28.5° (Epoch: 06 December)

Event Time Altitude Azimuth Distance (km) Brightness Sun altitude
Exits shadow 15:03:32 33° 157° (SSE) 909 2.3 -27.9°
Drops below altitude 10° 15:06:13 10° 130° (SE) 1,792 4.4 -27.4°
Sets 15:08:34 0° 124° (SE) 2,685 5.7 -26.9°
